Weather in Padali

Russia / Khabarovsk Krai     50°12′58″N   136°38′53″E
temp.,
°C
wind,
m/s
gust,
m/s
humid.,
%
clouds,
%
prec.,
mm/h
press.,
hPa
HPBL,
m
27 february, sat
sat2701:00−19ssw24100100 0.1 1032106
04:00−20ssw3699100 0.1 1032191
07:00−21ssw4898100 0.1 1033300
10:00−20ssw5994100 0.1 1031367
13:00−16ssw61087100 0.0 1029489
16:00−14ssw71286100 0.1 1026589
19:00−13ssw51289100 0.1 1024526
22:00−13ssw41087100 0.1 1021365
28 february, sun
sun2801:00−14ssw41290100 0.0 1017457
04:00−13sw61488100 0.3 1014586
07:00−13sw61488100 0.0 1013548
10:00−12sw4787100 0.0 1012339
13:00−8sw3478100 0.0 1012439
16:00−5s1471100 0.0 1013581
19:00−10ese129198 0.1 101757
22:00−13ese229399 0.3 102030
1 march, mon
mon101:00−15e1295100 0.1 102141
04:00−18ese2394100 0.2 102377
07:00−21se119958 0.0 102524
10:00−19sse239077 0.0 1026319
13:00−16s3481100 0.0 1025525
16:00−14ssw3479100 0.1 1025511
19:00−18sse1294100 0.0 102721
22:00−20se1195100 0.1 102823
2 march, tue
tue201:00−20nne1197100 0.1 102944
04:00−22ssw1197100 0.1 103022
07:00−25s119699 0.0 103121
10:00−22s238798 0.0 1030255
13:00−19s337577 0.0 1029467
16:00−17s227558 0.0 1028418
19:00−22s12930 0.0 103021
22:00−23sw11924 0.0 103120
3 march, wed
wed301:00−24ssw22920 0.0 103022
04:00−25ssw22987 0.0 102948
07:00−27s239966 0.0 102978
10:00−24ssw469281 0.0 1027283
13:00−19ssw6108598 0.0 1023500
16:00−16ssw7118099 0.0 1020611
19:00−17ssw41188100 0.0 1018410
22:00−18ssw41187100 0.0 1017342